FW7595 Weather Reports


time (UTC)temp
F
wind
direction
speed
knots
gust
knots
rain 1hr
in
rain 24hr
in
rain mn
in
humidity
%
barometer
mb
20260507110005 53 100 1.7 3.5 0.00 0.00 0.00 86 1013.8
20260507104503 53 100 0.9 2.6 0.00 0.00 0.00 85 1013.9
20260507103001 53 99 0.0 2.6 0.00 0.00 0.00 85 1014.0
20260507101602 53 99 0.9 3.5 0.00 0.00 0.00 85 1014.1
20260507100112 54 321 0.9 2.6 0.00 0.00 0.00 85 1014.2
20260507094555 54 338 0.0 1.7 0.00 0.00 0.00 84 1014.3
20260507093056 54 341 0.9 1.7 0.00 0.00 0.00 84 1014.5
20260507091550 55 343 0.0 1.7 0.00 0.00 0.00 83 1014.7
20260507090049 55 342 0.0 1.7 0.00 0.00 0.00 82 1014.7
20260507084549 56 341 0.9 2.6 0.00 0.00 0.00 81 1015.0
20260507083058 56 343 0.9 2.6 0.00 0.00 0.00 81 1015.1
20260507081546 56 344 0.0 2.6 0.00 0.00 0.00 80 1015.1
20260507080038 57 255 0.9 1.7 0.00 0.00 0.00 80 1015.1
20260507074536 57 256 0.9 1.7 0.00 0.00 0.00 80 1015.3
20260507073041 58 257 0.9 2.6 0.00 0.00 0.00 79 1015.1
20260507071535 58 255 0.0 1.7 0.00 0.00 0.00 78 1015.1
20260507070037 58 252 0.0 1.7 0.00 0.00 0.00 79 1015.3
20260507064631 59 252 0.0 1.7 0.00 0.00 0.00 77 1015.4
20260507063031 59 252 0.0 1.7 0.00 0.00 0.00 77 1015.5
20260507061529 59 252 0.9 2.6 0.00 0.00 0.00 77 1015.4
20260507060027 60 252 0.0 0.9 0.00 0.00 0.00 76 1015.4
20260507054533 60 252 0.9 1.7 0.00 0.00 0.00 76 1015.4
20260507053026 60 252 0.0 1.7 0.00 0.00 0.00 75 1015.4
20260507051527 60 252 0.9 2.6 0.00 0.00 0.00 76 1015.3
20260507050033 61 250 0.0 0.0 0.00 0.00 0.00 75 1015.2
20260507044534 61 251 0.0 0.9 0.00 0.00 0.00 74 1015.2
20260507043024 61 252 0.0 0.9 0.00 0.00 0.00 73 1015.1
20260507041530 62 252 0.0 1.7 0.00 0.00 0.00 72 1015.2
20260507040023 62 252 0.0 0.9 0.00 0.00 0.00 70 1015.2
20260507034523 63 252 0.0 1.7 0.00 0.00 0.00 69 1014.9
20260507033028 63 252 0.0 1.7 0.00 0.00 0.00 68 1014.6
20260507031526 64 252 0.0 0.9 0.00 0.00 0.00 66 1014.6
20260507030022 65 251 0.0 3.5 0.00 0.00 0.00 64 1014.4
20260507024523 67 259 0.0 2.6 0.00 0.00 0.00 61 1014.3
20260507023020 68 199 0.0 1.7 0.00 0.00 0.00 59 1014.2
20260507021520 70 183 0.0 2.6 0.00 0.00 0.00 56 1014.1
20260507020020 71 235 0.9 3.5 0.00 0.00 0.00 54 1013.9
20260507014526 73 262 0.9 4.3 0.00 0.00 0.00 52 1013.7
20260507013023 74 205 0.9 3.5 0.00 0.00 0.00 51 1013.6
20260507011520 74 270 1.7 4.3 0.00 0.00 0.00 49 1013.4
20260507010017 75 280 0.9 3.5 0.00 0.00 0.00 48 1013.4
20260507004531 76 281 1.7 7.0 0.00 0.00 0.00 47 1013.4
20260507003015 76 261 0.9 5.2 0.00 0.00 0.00 47 1013.3
20260507001514 76 263 1.7 6.1 0.00 0.00 0.00 46 1013.2
20260507000015 77 323 0.9 2.6 0.00 0.00 0.00 44 1013.2
20260506234510 75 239 0.0 6.1 0.00 0.00 0.00 46 1013.3
20260506233009 76 287 2.6 9.6 0.00 0.00 0.00 44 1013.2
20260506231519 77 296 3.5 9.6 0.00 0.00 0.00 43 1013.3
20260506230007 76 218 1.7 7.8 0.00 0.00 0.00 45 1013.4
20260506224507 77 258 1.7 7.8 0.00 0.00 0.00 44 1013.5
20260506223005 76 270 0.9 6.1 0.00 0.00 0.00 47 1013.6
20260506221503 75 264 2.6 8.7 0.00 0.00 0.00 47 1013.7
20260506220002 76 281 2.6 7.8 0.00 0.00 0.00 47 1014.0
20260506214559 78 281 1.7 6.1 0.00 0.00 0.00 44 1014.1
20260506213127 78 287 0.9 4.3 0.00 0.00 0.00 45 1014.3
20260506211606 77 259 2.6 7.8 0.00 0.00 0.00 46 1014.4
20260506210055 76 286 1.7 7.0 0.00 0.00 0.00 46 1014.5
20260506204556 76 292 2.6 8.7 0.00 0.00 0.00 43 1014.7
20260506203049 76 277 0.0 6.1 0.00 0.00 0.00 42 1014.7
20260506201557 76 279 1.7 6.1 0.00 0.00 0.00 42 1014.9
20260506200146 75 273 1.7 4.3 0.00 0.00 0.00 45 1015.0
20260506194554 74 265 0.0 6.1 0.00 0.00 0.00 45 1015.2
20260506193139 74 256 0.9 3.5 0.00 0.00 0.00 46 1015.4
20260506191540 72 281 1.7 4.3 0.00 0.00 0.00 47 1015.6
20260506190030 70 282 0.0 7.8 0.00 0.00 0.00 51 1015.7
20260506184528 70 279 4.3 7.8 0.00 0.00 0.00 49 1015.9
20260506183039 69 283 0.9 7.8 0.00 0.00 0.00 53 1016.0
20260506181526 70 284 3.5 7.8 0.00 0.00 0.00 51 1016.2
20260506180022 69 263 0.0 7.0 0.00 0.00 0.00 53 1016.1
20260506174520 67 275 2.6 5.2 0.00 0.00 0.00 53 1016.3
20260506173018 67 269 0.9 7.0 0.00 0.00 0.00 55 1016.3
20260506171524 66 294 1.7 5.2 0.00 0.00 0.00 59 1016.3
20260506170012 65 282 0.9 4.3 0.00 0.00 0.00 60 1016.3
20260506164510 65 296 0.9 3.5 0.00 0.00 0.00 61 1016.2
20260506163006 63 285 2.6 4.3 0.00 0.00 0.00 64 1016.3
20260506161502 61 71 0.9 3.5 0.00 0.00 0.00 67 1016.2
20260506160109 60 106 0.0 3.5 0.00 0.00 0.00 69 1016.3
20260506154555 59 109 0.9 3.5 0.00 0.00 0.00 73 1016.3
20260506153050 58 92 0.0 3.5 0.00 0.00 0.00 75 1016.5
20260506151547 56 103 0.9 3.5 0.00 0.00 0.00 78 1016.3
20260506150045 55 98 1.7 3.5 0.00 0.00 0.00 81 1016.3
20260506144558 54 103 0.9 5.2 0.00 0.00 0.00 84 1016.4
20260506143043 52 98 0.0 3.5 0.00 0.00 0.00 86 1016.3
20260506141542 51 84 0.9 2.6 0.00 0.00 0.00 87 1016.4
20260506140044 50 111 0.9 3.5 0.00 0.00 0.00 88 1016.3
20260506134540 49 275 0.9 2.6 0.00 0.00 0.00 89 1016.3
20260506133038 48 271 0.0 1.7 0.00 0.00 0.00 89 1016.1
20260506131537 48 271 0.0 1.7 0.00 0.00 0.00 89 1015.9
20260506130025 48 271 0.0 1.7 0.00 0.00 0.00 89 1015.7
20260506124525 48 271 0.9 1.7 0.00 0.00 0.00 89 1015.7
20260506123031 48 270 0.9 2.6 0.00 0.00 0.00 89 1015.7
20260506121524 48 269 0.9 2.6 0.00 0.00 0.00 89 1015.6
20260506120028 49 269 0.9 2.6 0.00 0.03 0.00 88 1015.5
20260506114517 49 269 0.9 1.7 0.00 0.03 0.00 87 1015.6
20260506113026 49 269 0.9 1.7 0.00 0.03 0.00 87 1015.5
20260506111514 49 269 0.9 1.7 0.00 0.03 0.00 86 1015.5